GW3708 Weather Reports


Display with metric or nautical units.
time (UTC)temp
F
wind
direction
speed
MPH
gust
MPH
rain 1hr
in
rain 24hr
in
rain mn
in
humidity
%
barometer
mb
20260502203024 52 159 2.0 6.0 0.00 0.00 0.00 86 1010.1
20260502202509 52 190 1.0 6.0 0.00 0.00 0.00 86 1010.3
20260502202003 52 175 3.0 6.0 0.00 0.00 0.00 86 1010.3
20260502201508 52 177 2.0 6.0 0.00 0.00 0.00 86 1010.5
20260502201004 52 182 2.0 7.0 0.00 0.00 0.00 86 1010.6
20260502200506 51 162 4.0 9.0 0.00 0.00 0.00 86 1010.6
20260502200016 51 182 4.0 9.0 0.00 0.00 0.00 86 1010.6
20260502195507 51 153 5.0 9.0 0.00 0.00 0.00 86 1010.7
20260502195006 51 187 4.0 7.0 0.00 0.00 0.00 86 1010.7
20260502194520 51 160 3.0 6.0 0.00 0.00 0.00 86 1010.9
20260502194007 51 169 3.0 6.0 0.00 0.00 0.00 87 1010.8
20260502193508 51 151 1.0 9.0 0.00 0.00 0.00 86 1010.8
20260502193027 51 163 4.0 9.0 0.00 0.00 0.00 86 1011.0
20260502192509 51 188 5.0 7.0 0.00 0.00 0.00 86 1011.0
20260502192010 51 172 3.0 7.0 0.00 0.00 0.00 86 1011.0
20260502191525 51 187 3.0 5.0 0.00 0.00 0.00 86 1011.1
20260502191010 51 209 2.0 7.0 0.00 0.00 0.00 86 1011.2
20260502190506 51 199 2.0 7.0 0.00 0.00 0.00 86 1011.2
20260502190014 51 180 3.0 7.0 0.00 0.00 0.00 86 1011.2
20260502185506 51 148 3.0 7.0 0.00 0.00 0.00 86 1011.2
20260502185002 51 171 3.0 6.0 0.00 0.00 0.00 86 1011.3
20260502184505 51 179 3.0 6.0 0.00 0.00 0.00 86 1011.4
20260502184003 51 196 2.0 6.0 0.00 0.00 0.00 86 1011.3
20260502183503 51 180 3.0 7.0 0.00 0.00 0.00 86 1011.4
20260502183006 51 186 3.0 8.0 0.00 0.00 0.00 86 1011.4
20260502182503 51 162 5.0 8.0 0.00 0.00 0.00 86 1011.4
20260502182004 51 189 4.0 7.0 0.00 0.00 0.00 86 1011.3
20260502181507 51 196 4.0 7.0 0.00 0.00 0.00 86 1011.3
20260502181003 51 181 3.0 6.0 0.00 0.00 0.00 86 1011.4
20260502180504 51 175 3.0 6.0 0.00 0.00 0.00 86 1011.5
20260502170506 52 205 0.0 2.0 0.00 0.00 0.00 84 1011.8
20260502164003 52 242 0.0 0.0 0.00 0.00 0.00 84 1011.7
20260502163506 52 244 0.0 0.0 0.00 0.00 0.00 84 1011.7
20260502163018 52 248 0.0 0.0 0.00 0.00 0.00 84 1011.7
20260502162507 52 257 0.0 0.0 0.00 0.00 0.00 84 1011.8
20260502162012 52 257 0.0 1.0 0.00 0.00 0.00 84 1011.7
20260502161505 52 258 0.0 2.0 0.00 0.00 0.00 84 1011.8
20260502161007 52 239 1.0 2.0 0.00 0.00 0.00 84 1011.7
20260502160508 52 254 1.0 2.0 0.00 0.00 0.00 84 1011.9
20260502152006 52 220 1.0 2.0 0.00 0.00 0.00 83 1012.1
20260502151521 52 218 1.0 3.0 0.00 0.00 0.00 83 1012.1
20260502151011 52 208 1.0 3.0 0.00 0.00 0.00 83 1012.1
20260502150507 52 219 1.0 3.0 0.00 0.00 0.00 83 1012.2
20260502130507 53 153 1.0 2.0 0.00 0.00 0.00 80 1012.0
20260502123512 52 314 0.0 0.0 0.00 0.00 0.00 82 1012.6
20260502123014 52 13 0.0 0.0 0.00 0.00 0.00 82 1012.4
20260502122508 52 13 0.0 2.0 0.00 0.00 0.00 81 1012.4
20260502122004 52 13 0.0 2.0 0.00 0.00 0.00 81 1012.5
20260502121514 52 307 0.0 2.0 0.00 0.00 0.00 81 1012.5
20260502121004 52 315 0.0 1.0 0.00 0.00 0.00 82 1012.7
20260502120508 52 288 0.0 0.0 0.00 0.00 0.00 82 1012.8
20260502115512 52 254 0.0 0.0 0.00 0.00 0.00 82 1012.7
20260502115008 52 254 0.0 0.0 0.00 0.00 0.00 82 1012.7
20260502114521 52 283 0.0 0.0 0.00 0.00 0.00 82 1012.5
20260502114008 52 283 0.0 0.0 0.00 0.00 0.00 82 1012.4
20260502113511 52 283 0.0 0.0 0.00 0.00 0.00 82 1012.3
20260502113024 51 283 0.0 1.0 0.00 0.00 0.00 83 1012.3
20260502112510 51 283 0.0 1.0 0.00 0.00 0.00 83 1012.4
20260502112009 51 292 0.0 3.0 0.00 0.00 0.00 83 1012.3
20260502111510 51 244 0.0 3.0 0.00 0.00 0.00 83 1012.4
20260502111004 51 257 2.0 3.0 0.00 0.00 0.00 84 1012.4
20260502110504 51 251 0.0 1.0 0.00 0.00 0.00 84 1012.2
20260502110019 50 243 0.0 1.0 0.00 0.00 0.00 84 1012.1
20260502105507 50 240 0.0 0.0 0.00 0.00 0.00 84 1012.0
20260502105006 50 240 0.0 2.0 0.00 0.00 0.00 84 1012.0
20260502104537 50 212 0.0 2.0 0.00 0.00 0.00 83 1012.0
20260502104009 50 360 0.0 0.0 0.00 0.00 0.00 84 1012.1
20260502103507 50 21 0.0 2.0 0.00 0.00 0.00 84 1011.9
20260502103027 50 309 0.0 2.0 0.00 0.00 0.00 84 1011.8
20260502102512 50 304 0.0 4.0 0.00 0.00 0.00 84 1011.7
20260502102009 50 268 0.0 5.0 0.00 0.00 0.00 84 1011.8
20260502101526 50 252 2.0 5.0 0.00 0.00 0.00 84 1011.8
20260502101008 50 254 3.0 4.0 0.00 0.00 0.00 84 1011.7
20260502100503 50 251 2.0 4.0 0.00 0.00 0.00 84 1011.6
20260502091511 50 239 1.0 3.0 0.00 0.00 0.00 82 1011.3
20260502091005 50 247 2.0 3.0 0.00 0.00 0.00 82 1011.5
20260502090504 50 236 2.0 4.0 0.00 0.00 0.00 82 1011.6
20260502071007 50 252 1.0 2.0 0.00 0.00 0.00 81 1011.9
20260502070512 50 256 1.0 2.0 0.00 0.00 0.00 81 1011.9
20260502070026 50 256 1.0 2.0 0.00 0.00 0.00 81 1012.0
20260502065509 50 243 1.0 2.0 0.00 0.00 0.00 81 1012.2
20260502065012 50 234 1.0 4.0 0.00 0.00 0.00 80 1012.1
20260502064513 50 247 1.0 4.0 0.00 0.00 0.00 80 1012.2
20260502064004 50 238 2.0 4.0 0.00 0.00 0.00 80 1012.3
20260502063505 50 230 2.0 4.0 0.00 0.00 0.00 80 1012.3
20260502063016 50 252 2.0 3.0 0.00 0.00 0.00 80 1012.2
20260502062506 50 248 2.0 3.0 0.00 0.00 0.00 79 1012.0
20260502062008 50 260 2.0 3.0 0.00 0.00 0.00 79 1012.0
20260502061520 50 232 2.0 3.0 0.00 0.00 0.00 79 1012.2
20260502061009 50 246 1.0 3.0 0.00 0.00 0.00 79 1012.1
20260502060508 50 241 2.0 3.0 0.00 0.00 0.00 79 1012.3
20260502060024 50 250 1.0 3.0 0.00 0.00 0.00 79 1012.3
20260502055508 50 245 1.0 3.0 0.00 0.00 0.00 78 1012.3
20260502055015 50 251 2.0 2.0 0.00 0.00 0.00 78 1012.2
20260502054526 50 244 2.0 2.0 0.00 0.00 0.00 78 1012.0
20260502054008 50 235 1.0 3.0 0.00 0.00 0.00 77 1012.1
20260502053507 50 227 1.0 3.0 0.00 0.00 0.00 77 1012.1
20260502053016 50 236 2.0 3.0 0.00 0.00 0.00 77 1012.4
20260502052506 50 238 2.0 3.0 0.00 0.00 0.00 77 1012.5
20260502052009 50 232 1.0 3.0 0.00 0.00 0.00 76 1012.4
20260502051533 50 232 2.0 3.0 0.00 0.00 0.00 77 1012.4
20260502051011 50 234 2.0 3.0 0.00 0.00 0.00 76 1012.6
20260502050507 50 232 2.0 3.0 0.00 0.00 0.00 76 1012.6
20260502050022 50 234 2.0 4.0 0.00 0.00 0.00 76 1012.5
20260502045508 50 246 2.0 4.0 0.00 0.00 0.00 76 1012.7
20260502045008 50 236 2.0 4.0 0.00 0.00 0.00 75 1012.9
20260502044528 50 242 2.0 3.0 0.00 0.00 0.00 75 1013.0
20260502044010 50 253 2.0 4.0 0.00 0.00 0.00 75 1012.8
20260502043509 50 244 2.0 4.0 0.00 0.00 0.00 75 1012.8
20260502043028 50 254 1.0 4.0 0.00 0.00 0.00 74 1012.7
20260502042509 50 223 2.0 4.0 0.00 0.00 0.00 75 1012.5
20260502042012 50 259 2.0 4.0 0.00 0.00 0.00 75 1012.6
20260502041529 49 234 2.0 4.0 0.00 0.00 0.00 75 1012.6
20260502041004 49 244 3.0 4.0 0.00 0.00 0.00 76 1012.6
20260502040506 48 230 2.0 3.0 0.00 0.00 0.00 77 1012.7
20260502040019 48 219 2.0 3.0 0.00 0.00 0.00 77 1012.6
20260502035507 48 229 2.0 3.0 0.00 0.00 0.00 78 1012.7
20260502035010 48 188 1.0 3.0 0.00 0.00 0.00 79 1012.8
20260502034537 48 333 0.0 0.0 0.00 0.00 0.00 79 1012.9
20260502034007 48 334 0.0 3.0 0.00 0.00 0.00 78 1012.9
20260502033514 48 334 0.0 3.0 0.00 0.00 0.00 78 1012.9
20260502033029 49 300 0.0 2.0 0.00 0.00 0.00 77 1013.0
20260502032509 49 16 0.0 2.0 0.00 0.00 0.00 77 1012.9
20260502032006 49 247 0.0 2.0 0.00 0.00 0.00 77 1013.0
20260502031514 49 247 0.0 3.0 0.00 0.00 0.00 76 1013.0
20260502031006 50 242 2.0 3.0 0.00 0.00 0.00 76 1013.1
20260502030508 50 239 0.0 0.0 0.00 0.00 0.00 76 1013.1
20260502030018 51 239 0.0 0.0 0.00 0.00 0.00 75 1013.1
20260502025505 51 239 0.0 0.0 0.00 0.00 0.00 74 1013.1
20260502025008 51 239 0.0 2.0 0.00 0.00 0.00 74 1013.0
20260502024528 51 239 0.0 2.0 0.00 0.00 0.00 74 1012.9
20260502024003 51 239 1.0 2.0 0.00 0.00 0.00 74 1012.8
20260502023505 51 225 1.0 2.0 0.00 0.00 0.00 73 1012.8
20260502023006 52 259 0.0 3.0 0.00 0.00 0.00 73 1012.9
20260502022503 52 259 1.0 3.0 0.00 0.00 0.00 73 1012.7
20260502022004 52 221 2.0 3.0 0.00 0.00 0.00 72 1012.6
20260502021510 52 238 2.0 3.0 0.00 0.00 0.00 72 1012.5
20260502021006 52 221 2.0 3.0 0.00 0.00 0.00 72 1012.5
20260502020504 52 238 2.0 3.0 0.00 0.00 0.00 72 1012.5
20260502020014 51 240 2.0 3.0 0.00 0.00 0.00 72 1012.4
20260502015507 51 234 2.0 3.0 0.00 0.00 0.00 72 1012.4
20260502015012 51 237 2.0 4.0 0.00 0.00 0.00 72 1012.4
20260502014524 51 232 2.0 4.0 0.00 0.00 0.00 71 1012.5
20260502014009 51 242 2.0 4.0 0.00 0.00 0.00 71 1012.5
20260502013506 51 230 2.0 4.0 0.00 0.00 0.00 70 1012.5
20260502013023 51 240 3.0 5.0 0.00 0.00 0.00 70 1012.5
20260502012503 51 252 3.0 5.0 0.00 0.00 0.00 70 1012.6
20260502012003 51 246 2.0 4.0 0.00 0.00 0.00 70 1012.6
20260502011504 51 232 3.0 5.0 0.00 0.00 0.00 70 1012.5
20260502011003 51 236 3.0 5.0 0.00 0.00 0.00 70 1012.5
20260502010503 51 259 3.0 5.0 0.00 0.00 0.00 70 1012.6
20260502010014 52 243 3.0 4.0 0.00 0.00 0.00 69 1012.5
20260502005503 52 250 3.0 4.0 0.00 0.00 0.00 69 1012.5
20260502005007 52 259 3.0 4.0 0.00 0.00 0.00 69 1012.4
20260502004520 52 249 3.0 5.0 0.00 0.00 0.00 69 1012.2
20260502004008 52 251 3.0 5.0 0.00 0.00 0.00 69 1012.1
20260502003508 52 248 3.0 5.0 0.00 0.00 0.00 69 1012.0
20260502003022 52 238 3.0 5.0 0.00 0.00 0.00 69 1011.9
20260502002508 52 244 3.0 5.0 0.00 0.00 0.00 68 1011.9
20260502002011 52 255 3.0 5.0 0.00 0.00 0.00 68 1011.8
20260502001524 52 236 3.0 5.0 0.00 0.00 0.00 68 1011.7
20260502001003 52 244 3.0 5.0 0.00 0.00 0.00 68 1011.7
20260502000502 52 235 3.0 5.0 0.00 0.00 0.00 67 1011.5
20260502000008 52 234 3.0 5.0 0.00 0.00 0.00 66 1011.5
20260501235503 53 248 3.0 6.0 0.00 0.00 0.00 66 1011.4
20260501235003 53 244 3.0 6.0 0.00 0.00 0.00 65 1011.3
20260501234515 53 266 3.0 5.0 0.00 0.00 0.00 65 1011.2
20260501234006 53 246 3.0 5.0 0.00 0.00 0.00 64 1011.1
20260501233511 53 243 3.0 5.0 0.00 0.00 0.00 64 1011.1
20260501233020 54 246 3.0 5.0 0.00 0.00 0.00 63 1011.0
20260501232506 54 255 3.0 8.0 0.00 0.00 0.00 64 1011.0
20260501232010 54 254 3.0 8.0 0.00 0.00 0.00 62 1011.0
20260501231535 55 258 4.0 8.0 0.00 0.00 0.00 62 1011.0
20260501231007 55 240 4.0 5.0 0.00 0.00 0.00 64 1010.9
20260501230507 55 238 4.0 6.0 0.00 0.00 0.00 63 1010.9
20260501230026 56 261 4.0 6.0 0.00 0.00 0.00 61 1010.8
20260501225503 56 250 3.0 6.0 0.00 0.00 0.00 59 1010.7
20260501225003 56 242 4.0 6.0 0.00 0.00 0.00 57 1010.6
20260501224512 57 267 3.0 6.0 0.00 0.00 0.00 56 1010.5
20260501224004 57 252 3.0 5.0 0.00 0.00 0.00 58 1010.4
20260501223510 57 245 3.0 7.0 0.00 0.00 0.00 58 1010.6
20260501223016 58 229 4.0 7.0 0.00 0.00 0.00 56 1010.5
20260501222511 58 246 3.0 5.0 0.00 0.00 0.00 56 1010.5
20260501222008 58 236 3.0 5.0 0.00 0.00 0.00 55 1010.4
20260501221519 58 246 3.0 5.0 0.00 0.00 0.00 54 1010.3
20260501221010 59 250 2.0 4.0 0.00 0.00 0.00 54 1010.3
20260501220509 59 230 3.0 5.0 0.00 0.00 0.00 55 1010.3
20260501220023 59 240 3.0 5.0 0.00 0.00 0.00 54 1010.2
20260501215507 59 238 2.0 5.0 0.00 0.00 0.00 55 1010.3
20260501215007 59 212 2.0 4.0 0.00 0.00 0.00 53 1010.2
20260501214538 60 242 2.0 4.0 0.00 0.00 0.00 52 1010.2
20260501214003 60 246 2.0 4.0 0.00 0.00 0.00 52 1010.1
20260501213504 60 240 2.0 3.0 0.00 0.00 0.00 51 1010.2
20260501213012 61 242 2.0 3.0 0.00 0.00 0.00 44 1010.1
20260501212504 60 222 1.0 3.0 0.00 0.00 0.00 44 1010.1
20260501212008 60 245 2.0 3.0 0.00 0.00 0.00 40 1010.1
20260501211511 61 270 1.0 4.0 0.00 0.00 0.00 43 1010.0
20260501211002 61 247 1.0 4.0 0.00 0.00 0.00 40 1010.0
20260501210502 61 250 2.0 4.0 0.00 0.00 0.00 39 1010.1
20260501210004 61 265 2.0 4.0 0.00 0.00 0.00 41 1010.1
20260501205504 61 269 2.0 4.0 0.00 0.00 0.00 41 1010.2
20260501205004 61 257 2.0 4.0 0.00 0.00 0.00 40 1010.2
20260501204509 61 270 2.0 4.0 0.00 0.00 0.00 42 1010.2
20260501204004 61 251 0.0 4.0 0.00 0.00 0.00 42 1010.1
20260501203503 61 256 1.0 4.0 0.00 0.00 0.00 43 1010.1